Regional Weather Roundup
Issued by NWS

Home | Current Version | Previous Version | Text Only | Print | Product List | Glossary On
Versions: 1 2 3 4 5 6 7 8 9 10 11 12 13 14 15 16 17 18 19 20 21 22 23 24 25 26 27 28 29 30 31 32 33 34 35 36 37 38 39 40 41 42 43 44 45 46 47 48 49 50
364
ASUS43 KDTX 240310
RWRMI
MICHIGAN HOURLY REGIONAL WEATHER ROUNDUP
NATIONAL WEATHER SERVICE DETROIT/PONTIAC MI
1100 PM EDT TUE MAY 23 2017

NOTE: "FAIR" INDICATES FEW OR NO CLOUDS BELOW 12,000 FEET WITH NO
SIGNIFICANT WEATHER AND/OR OBSTRUCTION TO VISIBILITY.

MIZ047>049-052>055-059>063-066>070-074>076-081>083-240400-
SOUTHEAST LOWER MICHIGAN

CITY           SKY/WX    TMP DP  RH WIND       PRES   REMARKS
ADRIAN         PTCLDY    58  54  86 NE8       29.71F
ALMA           CLOUDY    57  56  94 N3        29.73S
ANN ARBOR      PTCLDY    58  55  90 N6        29.71F
BAD AXE        RAIN      55  54  95 CALM      29.78F
CARO           DRIZZLE   56  55  96 E6        29.75F
DETROIT CITY   PTCLDY    63  52  67 N5        29.72S
DETROIT        CLOUDY    63  53  70 N8        29.72S
FLINT          PTCLDY    58  53  84 NE5       29.75S
GROSSE ILE     PTCLDY    63  50  62 CALM      29.70F
HILLSDALE      CLOUDY    57  52  82 NE8       29.70F
HOWELL         CLOUDY    56  53  88 NE6       29.73S

CITY           SKY/WX    TMP DP  RH WIND       PRES   REMARKS
JACKSON        CLOUDY    58  54  86 NE7       29.72F
LAMBERTVILLE   MOCLDY    60  51  72 NE3       29.70S
LANSING        CLOUDY    58  54  86 NE6       29.74R
LAPEER         MOCLDY    57  55  94 NE6       29.75S
MASON          CLOUDY    58  55  91 NE5       29.73F
MONROE         PTCLDY    61  49  64 CALM      29.71S
MT. CLEMENS    MOCLDY    62  51  67 W7        29.72R
PONTIAC        CLOUDY    57  53  86 N7        29.73F
PORT HOPE        N/A     56  53  90 CALM      29.77S
PORT HURON     CLOUDY    59  46  63 NE8       29.73F
TRI CITIES     CLOUDY    58  56  93 E9        29.75F
MIDLAND        LGT RAIN  57  56  96 NE5       29.73F
TROY           PTCLDY    61  51  70 N5        29.75S
SAGINAW HB     CLOUDY    59  54  82 E5        29.75R
$$
MIZ043>046-050>051-056>058-064>065-071>073-077>080-240400-
SOUTHWEST LOWER MICHIGAN

CITY           SKY/WX    TMP DP  RH WIND       PRES   REMARKS
BATTLE CREEK   CLOUDY    58  55  90 E3        29.73R
BENTON HARBOR  CLOUDY    58  55  90 CALM      29.70S
BIG RAPIDS     CLOUDY    56  50  80 CALM      29.74S
COLDWATER      CLOUDY    58  56  95 NE7       29.71S
FREMONT        LGT RAIN  57  53  86 NE3       29.74R
HOLLAND        CLOUDY    59  55  87 NE3       29.73R
GRAND RAPIDS   CLOUDY    57  56  96 N5        29.72R
IONIA          MOCLDY    57  55  93 CALM      29.72R
KALAMAZOO      CLOUDY    58  53  84 CALM      29.72S
LUDINGTON      LGT RAIN  53  53 100 CALM      29.73F
MARSHALL       CLOUDY    58  57  98 CALM      29.71F
MOUNT PLEASANT CLOUDY    56  54  91 N3        29.73F
MUSKEGON       LGT RAIN  58  56  93 NE5       29.72F
SOUTH HAVEN    LGT RAIN  58  57  95 NE3       29.72R
$$
MIZ016>042-240400-
NORTHERN LOWER MICHIGAN

CITY           SKY/WX    TMP DP  RH WIND       PRES   REMARKS
ALPENA         LGT RAIN  51  50  96 SE3       29.78F
BEAVER ISLAND  CLOUDY    54  44  68 NE7       29.79R
BELLAIRE       RAIN      55  53  94 CALM      29.76F
CADILLAC       CLOUDY    53  52  97 N6        29.74F
CHARLEVOIX     LGT RAIN  56  46  69 SE3       29.80S
FRANKFORT      LGT RAIN  53  51  92 CALM      29.75F
GAYLORD        LGT RAIN  55  50  83 NE5       29.76F
GRAYLING       CLOUDY    54  53  97 CALM      29.76F
HARBOR SPRINGS LGT RAIN  53  50  89 CALM      29.77S
HOUGHTON LAKE  CLOUDY    53  52  96 CALM      29.75F
MANISTEE       RAIN      55  54  96 E5        29.74F FOG
OSCODA         LGT RAIN  51  50  97 E6        29.77S
PELLSTON       LGT RAIN  53  46  77 N7        29.78S
ROGERS CITY    CLOUDY    49  47  92 CALM      29.79S
TRAVERSE CITY  LGT RAIN  51  47  86 E3        29.75S
$$
MIZ007>008-015-240400-
EASTERN UPPER MICHIGAN

CITY           SKY/WX    TMP DP  RH WIND       PRES   REMARKS
KINROSS        MOCLDY    47  43  86 N8        29.79F
MACKINAC ISLAN CLOUDY    51  45  80 NE6       29.79S
NEWBERRY       CLOUDY    46  45  94 N6        29.80F
S. S. MARIE    CLOUDY    48  43  82 W5        29.79S
MUNISING         N/A     41  40  96 NW8       29.83F
$$
MIZ004>006-011>014-085-240400-
CENTRAL UPPER MICHIGAN

CITY           SKY/WX    TMP DP  RH WIND       PRES   REMARKS
MANISTIQUE     CLOUDY    51  44  77 N12       29.79F
ESCANABA       CLOUDY    49  45  86 N8        29.80S
MENOMINEE      RAIN      51  48  89 NE12      29.79S
SAWYER-GWINN   CLOUDY    42  40  95 N6        29.84S
$$
MIZ001>003-009>011-084-240400-
WESTERN UPPER MICHIGAN

CITY           SKY/WX    TMP DP  RH WIND       PRES   REMARKS
IRON MOUNTAIN  CLOUDY    51  42  71 NE8       29.80S
HOUGHTON       CLOUDY    48  43  82 N5        29.85F
COPPER HARBOR    N/A     45  41  86 N6        29.87S
IRONWOOD       CLOUDY    46  42  86 N5        29.87R
$$

ABBREVIATIONS USED IN REMARKS
   TC - TEMPERATURE IN CELSIUS
  WCI - WIND CHILL INDEX
   HX - HEAT INDEX
  VSB - VISIBILITY





USA.gov is the U.S. government's official web portal to all federal, state and local government web resources and services.